Regional Weather Roundup
Issued by NWS

Home | Current Version | Previous Version | Graphics & Text | Print | Product List | Glossary On
Versions: 1 2 3 4 5 6 7 8 9 10 11 12 13 14 15 16 17 18 19 20 21 22 23 24 25 26 27 28 29 30 31 32 33 34 35 36 37 38 39 40 41 42 43 44 45 46 47 48 49 50
451
ASUS43 KLSX 230710
RWRMO

WEATHER SUMMARY FOR MISSOURI
NATIONAL WEATHER SERVICE SPRINGFIELD MO
100 AM CST THU FEB 23 2017

NOTE: "FAIR" INDICATES FEW OR NO CLOUDS BELOW 12,000 FEET WITH NO
       SIGNIFICANT WEATHER AND/OR OBSTRUCTIONS TO VISIBILITY.
       CURRENT SKY AND/OR WEATHER CONDITIONS ARE NOT AVAILABLE FOR
       CHILLICOTHE AND FARMINGTON.

MOZ001>031-035>038-043-044-053-054-230800-
...NORTHERN AND WESTERN MISSOURI...

CITY           SKY/WX    TMP DP  RH WIND       PRES   REMARKS
KANSAS CTY INT CLOUDY    54  39  57 NE14      29.73R
KANSAS C DTWN  CLOUDY    53  38  56 NE6       29.73R
LEE`S SUMMIT   PTCLDY    54  39  57 N8        29.72R
ST JOSEPH      PTCLDY    50  40  68 NE10      29.75S
CHILLICOTHE      N/A     52  40  63 N7        29.75R
KIRKSVILLE     CLEAR     50  41  71 N10       29.74R

$$
MOZ066>068-077>081-088>096-101>105-230800-
...SOUTHWEST MISSOURI...

CITY           SKY/WX    TMP DP  RH WIND       PRES   REMARKS
SPRINGFIELD    CLEAR     56  53  90 S12       29.72F
JOPLIN         CLEAR     59  53  80 S8        29.69S
BRANSON        PTCLDY    54  54 100 SE7       29.75F

$$
MOZ032>034-039>042-045>050-055>058-069>072-230800-
...CENTRAL MISSOURI...

CITY           SKY/WX    TMP DP  RH WIND       PRES   REMARKS
COLUMBIA       CLEAR     54  52  93 S6        29.71S
JEFFERSON CITY CLEAR     52  50  93 E5        29.71S
ROLLA          CLEAR     54  53  97 S12       29.71F
SEDALIA        CLEAR     57  52  83 CALM      29.71S
WHITEMAN AFB   CLEAR     51  45  82 CALM      29.69S
WARRENSBURG    PTCLDY    54  41  62 CALM      29.71R
OSAGE BEACH    CLEAR     56  53  90 S3        29.73S

$$
MOZ051-052-059>065-230800-
...EAST CENTRAL MISSOURI...

CITY           SKY/WX    TMP DP  RH WIND       PRES   REMARKS
ST LOUIS INTL  MOCLDY    60  53  77 SW5       29.73S
SPIRIT OF STL  PTCLDY    57  54  89 SW3       29.72S
ST CHARLES     PTCLDY    49  49 100 CALM      29.72S

$$
MOZ072>076-082>087-097>100-106>115-230800-
...SOUTH CENTRAL AND SOUTHEAST MISSOURI...

CITY           SKY/WX    TMP DP  RH WIND       PRES   REMARKS
CAPE GIRARDEAU PTCLDY    58  54  86 S7        29.77F
FARMINGTON     PTCLDY    58  54  86 SW8       29.77R
POPLAR BLUFF   PTCLDY    55  54  96 S3        29.78F
WEST PLAINS    FOG       53  52  96 SW8       29.78F VSB 3/4

$$




USA.gov is the U.S. government's official web portal to all federal, state and local government web resources and services.